Location: Mactaquac Provincial Park
(45.9573°N, 66.8897°W)
Time: 18:00:44
(UTC-03:00)

Cosmos 1867 - Visible Passes

Search period start: 01 September 2014 00:00
Search period end: 11 September 2014 00:00
Orbit: 778 x 799 km, 65.0° (Epoch: 01 September)

Date Brightness Start Highest point End Pass type
(mag) Time Alt. Az. Time Alt. Az. Time Alt. Az.
01 Sep 5.2 01:04:42 10° NNW 01:08:48 30° NNE 01:08:48 30° NNE visible
01 Sep 5.7 02:48:07 10° NW 02:49:25 17° NW 02:49:25 17° NW visible
01 Sep 6.3 21:03:55 10° NW 21:05:55 12° NNW 21:07:56 10° N visible
01 Sep 6.2 22:50:42 10° N 22:52:09 11° NNE 22:53:36 10° NNE visible
02 Sep 5.3 00:33:14 10° NNW 00:37:32 26° NNE 00:37:32 26° NNE visible
02 Sep 5.6 02:16:27 10° NW 02:18:09 21° NW 02:18:09 21° NW visible
02 Sep 6.2 20:31:22 10° NW 20:33:57 13° NNW 20:36:32 10° N visible
02 Sep 6.3 22:19:23 10° N 22:20:08 10° N 22:20:54 10° NNE visible
03 Sep 5.5 00:01:46 10° NNW 00:05:56 22° NNE 00:06:20 21° NE visible
03 Sep 5.5 01:44:50 10° NW 01:46:58 24° NNW 01:46:58 24° NNW visible
03 Sep 5.6 23:30:19 10° NNW 23:34:04 18° NNE 23:35:12 17° NE visible
04 Sep 5.3 01:13:16 10° NNW 01:15:50 28° NNW 01:15:50 28° NNW visible
04 Sep 5.8 22:58:53 10° NNW 23:02:09 16° NNE 23:04:07 13° NE visible
05 Sep 5.2 00:41:43 10° NNW 00:44:45 31° N 00:44:45 31° N visible
05 Sep 6.3 20:43:37 10° N 20:44:03 10° N 20:44:30 10° N visible
05 Sep 5.9 22:27:28 10° N 22:30:13 14° NNE 22:32:58 10° NE visible
06 Sep 5.1 00:10:12 10° NNW 00:13:43 32° N 00:13:43 32° N visible
06 Sep 6.1 01:53:55 10° NW 01:54:21 12° NW 01:54:21 12° NW visible
06 Sep 6.0 21:56:03 10° N 21:58:15 12° NNE 22:00:27 10° NE visible
06 Sep 5.0 23:38:42 10° NNW 23:42:42 31° NNE 23:42:42 31° NNE visible
07 Sep 5.9 01:22:10 10° NW 01:23:21 17° NW 01:23:21 17° NW visible
07 Sep 6.0 21:24:40 10° N 21:26:16 11° NNE 21:27:52 10° NNE visible
07 Sep 5.1 23:07:13 10° NNW 23:11:44 27° NE 23:11:44 27° NE visible
08 Sep 5.6 00:50:29 10° NW 00:52:23 22° NW 00:52:23 22° NW visible
08 Sep 6.1 20:53:19 10° N 20:54:15 10° N 20:55:11 10° NNE visible
08 Sep 5.2 22:35:45 10° NNW 22:40:00 22° NNE 22:40:48 22° NE visible
09 Sep 5.3 00:18:52 10° NW 00:21:27 29° NW 00:21:27 29° NW visible
09 Sep 5.4 22:04:18 10° NNW 22:08:09 19° NNE 22:09:54 17° NE visible
09 Sep 4.9 23:47:17 10° NNW 23:50:33 37° NNW 23:50:33 37° NNW visible
10 Sep 5.6 21:32:52 10° NNW 21:36:15 16° NNE 21:39:01 12° ENE visible
10 Sep 4.5 23:15:43 10° NNW 23:19:40 42° N 23:19:40 42° N visible
